Regional Weather Roundup
Issued by NWS

Home | Current Version | Previous Version | Graphics & Text | Print | Product List | Glossary On
Versions: 1 2 3 4 5 6 7 8 9 10 11 12 13 14 15 16 17 18 19 20 21 22 23 24 25 26 27 28 29 30 31 32 33 34 35 36 37 38 39 40 41 42 43 44 45 46 47 48 49 50
502
ASUS43 KBIS 250110
RWRND

NORTH DAKOTA REGIONAL WEATHER ROUNDUP
NATIONAL WEATHER SERVICE BISMARCK ND
800 PM CDT MON JUL 24 2017

NOTE: "FAIR" INDICATES FEW OR NO CLOUDS BELOW 12,000 FEET WITH NO
SIGNIFICANT WEATHER AND/OR OBSTRUCTIONS TO VISIBILITY.


NDZ001>003-009>011-017-250200-
NORTHWEST NORTH DAKOTA

CITY           SKY/WX    TMP DP  RH WIND       PRES   REMARKS
WILLISTON      MOSUNNY   87  50  27 N13       29.79R
MINOT          MOSUNNY   92  62  36 S16       29.74R HX  92
MINOT AFB      MOSUNNY   87  63  45 N14       29.74R
$$

NDZ018>021-031>035-040>046-250200-
SOUTHWEST NORTH DAKOTA

CITY           SKY/WX    TMP DP  RH WIND       PRES   REMARKS
BISMARCK       SUNNY     83  67  58 S15       29.80S
DICKINSON      PTSUNNY   89  66  46 VRB5      29.76R HX  91
GARRISON         N/A     85  64  49 SE12      29.74R
HETTINGER ARPT MOSUNNY   88  55  32 SE9       29.81S
$$

NDZ004>008-012>016-024-026-027-054-250200-
NORTHEAST NORTH DAKOTA

CITY           SKY/WX    TMP DP  RH WIND       PRES   REMARKS
GRAND FORKS    MOSUNNY   77  66  68 S12       29.85S
GRND FRKS AFB  SUNNY     76  63  65 S15       29.85F
DEVILS LAKE    MOSUNNY   78  65  63 S15G23    29.83S
$$

NDZ022-023-025-028>030-036>039-047>053-250200-
SOUTHEAST NORTH DAKOTA

CITY           SKY/WX    TMP DP  RH WIND       PRES   REMARKS
FARGO          CLOUDY    77  63  61 S14G21    29.88S
JAMESTOWN      SUNNY     78  64  61 S14       29.85F
$$





USA.gov is the U.S. government's official web portal to all federal, state and local government web resources and services.